Location: Arrakis Observatory
(44.1122°N, 95.7153°W)
Time: 23:19:24
(UTC-05:00)

Amateur Radio Satellites - All Passes

Search period start: 30 August 2016 22:49
Search period end: 31 August 2016 22:49
Location: Arrakis Observatory, 44.1122°N, 95.7153°W

Satellite Date Start Highest point End Downlink Frequencies (MHz)
Time Altitude Azimuth
AUBIESAT-1 30 Aug 22:56:05 23:00:26 41° 65° (ENE) 23:04:43 437.475
M-CUBED/EXP-1 PRIME 30 Aug 23:04:33 23:09:11 60° 68° (ENE) 23:13:47 437.505
CUSAT 1 30 Aug 23:07:11 23:09:38 20° 86° (E) 23:12:31 437.405
ZACube-1 30 Aug 23:10:45 23:12:37 12° 270° (W) 23:14:29 437.345
GONETS M04 30 Aug 23:13:20 23:22:09 62° 77° (ENE) 23:30:52
TIGRISAT 30 Aug 23:18:13 23:22:11 36° 97° (E) 23:26:05 435.000
AISAT 30 Aug 23:19:11 23:22:35 22° 64° (ENE) 23:25:59 437.250
HUMSAT D 30 Aug 23:23:31 23:27:20 35° 263° (W) 23:31:07 437.325/437.525
ESTCUBE 1 30 Aug 23:24:44 23:28:55 40° 70° (ENE) 23:33:09 437.505/2401.250
PRISM 30 Aug 23:31:20 23:34:13 18° 296° (WNW) 23:37:04 437.425
UNISAT 6 30 Aug 23:47:51 23:52:09 82° 103° (ESE) 23:56:25 437.425
Cosmos 2499 30 Aug 23:48:24 23:55:29 77° 80° (E) 00:02:41 435.465 / 435.565
POPSAT HIP 1 30 Aug 23:49:38 23:51:13 12° 89° (E) 23:52:48 437.405
50 SAT 30 Aug 23:52:50 23:56:09 37° 71° (ENE) 23:59:29 437.505
O/OREOS (USA 219) 30 Aug 23:57:02 00:01:38 73° 249° (WSW) 00:06:13 437.305
CUBEBUG 1 30 Aug 23:57:37 00:01:57 58° 73° (ENE) 00:06:19 437.445
SPROUT 30 Aug 23:59:15 00:02:49 26° 67° (ENE) 00:06:24 437.525
VELOX 1 31 Aug 00:04:58 00:09:19 58° 73° (ENE) 00:13:43 145.980
DX 1 31 Aug 00:10:13 00:14:22 45° 71° (ENE) 00:18:34 434.975-435.025
DUCHIFAT 1 31 Aug 00:11:51 00:14:50 19° 93° (E) 00:17:48 145.980
SO-50 31 Aug 00:12:57 00:17:47 64° 308° (NW) 00:22:34 436.795
QB50P2 31 Aug 00:19:19 00:22:56 27° 95° (E) 00:26:31 145.880/145.840
POLYITAN 1 31 Aug 00:21:48 00:25:26 27° 95° (E) 00:29:01 437.675
ANTELSAT 31 Aug 00:24:55 00:28:56 40° 289° (WNW) 00:32:55 437.575/2403.000
NANOSAT C BR1 31 Aug 00:26:57 00:30:38 29° 96° (E) 00:34:17 145.865
AUBIESAT-1 31 Aug 00:31:11 00:34:56 24° 261° (W) 00:38:42 437.475
DANDE 31 Aug 00:37:32 00:40:09 72° 99° (E) 00:43:13 436.750
M-CUBED/EXP-1 PRIME 31 Aug 00:40:54 00:43:58 17° 264° (W) 00:47:03 437.505
UKube-1 31 Aug 00:43:33 00:47:52 80° 73° (ENE) 00:52:14 .
CUSAT 1 31 Aug 00:48:52 00:51:31 21° 295° (WNW) 00:54:41 437.405
BUGSAT 1 31 Aug 00:51:56 00:55:08 21° 94° (E) 00:58:17 437.445
AISAT 31 Aug 00:54:35 00:58:47 41° 262° (W) 01:03:03 437.250
TIGRISAT 31 Aug 00:55:24 00:58:40 22° 295° (WNW) 01:01:55 435.000
RS-15 31 Aug 00:56:18 01:07:00 47° 109° (ESE) 01:18:12 29.354- 29.394
JAS-2 31 Aug 00:57:26 01:04:03 43° 98° (E) 01:11:14 435.910
ESTCUBE 1 31 Aug 01:02:30 01:05:53 21° 267° (W) 01:09:18 437.505/2401.250
PHONESAT 2.4 31 Aug 01:06:16 01:08:22 17° 157° (SSE) 01:10:28 2401.200-2431.200
GONETS M04 31 Aug 01:10:59 01:18:22 31° 278° (W) 01:25:44
QB50P1 31 Aug 01:12:50 01:17:04 82° 283° (WNW) 01:21:15 145.935-145.965
SWISSCUBE 31 Aug 01:22:35 01:24:35 13° 58° (ENE) 01:26:36 437.505
POPSAT HIP 1 31 Aug 01:23:15 01:27:27 64° 286° (WNW) 01:31:35 437.405
UNISAT 6 31 Aug 01:27:07 01:28:12 11° 301° (WNW) 01:29:18 437.425
50 SAT 31 Aug 01:27:52 01:29:53 14° 268° (W) 01:31:56 437.505
SPROUT 31 Aug 01:34:49 01:38:39 31° 264° (W) 01:42:30 437.525
CUBEBUG 1 31 Aug 01:36:12 01:38:37 14° 270° (W) 01:41:02 437.445
BEESAT 31 Aug 01:38:16 01:41:09 16° 60° (ENE) 01:44:01 436.000
TISAT 1 31 Aug 01:39:53 01:44:06 69° 74° (ENE) 01:48:21 437.305
Cosmos 2499 31 Aug 01:43:11 01:47:43 18° 280° (W) 01:52:18 435.465 / 435.565
VELOX 1 31 Aug 01:43:39 01:46:09 15° 270° (W) 01:48:40 145.980
DUCHIFAT 1 31 Aug 01:46:46 01:50:42 39° 290° (WNW) 01:54:35 145.980
DX 1 31 Aug 01:47:45 01:50:47 18° 268° (W) 01:53:50 434.975-435.025
QB50P2 31 Aug 01:55:05 01:58:42 28° 292° (WNW) 02:02:16 145.880/145.840
SO-50 31 Aug 01:56:31 01:59:11 15° 328° (NNW) 02:01:50 436.795
POLYITAN 1 31 Aug 01:57:36 02:01:11 27° 292° (WNW) 02:04:44 437.675
NANOSAT C BR1 31 Aug 02:02:47 02:06:16 26° 293° (WNW) 02:09:45 145.865
Oscar 19 31 Aug 02:09:36 02:14:08 29° 95° (E) 02:18:38 437.125/150
Gurwin Techsat 1B 31 Aug 02:11:19 02:14:10 14° 89° (E) 02:17:01 435.225
ITUPSAT 1 31 Aug 02:26:14 02:30:43 42° 69° (ENE) 02:35:12 437.325
BUGSAT 1 31 Aug 02:26:52 02:30:35 33° 291° (WNW) 02:34:14 437.445
PHONESAT 2.4 31 Aug 02:41:28 02:44:17 38° 174° (S) 02:47:06 2401.200-2431.200
JAS-2 31 Aug 02:42:37 02:49:01 42° 293° (WNW) 02:56:00 435.910
MOZHAYETS 4 31 Aug 02:56:39 02:59:00 14° 61° (ENE) 03:01:19
SWISSCUBE 31 Aug 02:56:55 03:01:41 86° 255° (WSW) 03:06:28 437.505
RS-15 31 Aug 03:07:39 03:19:10 61° 314° (NW) 03:31:20 29.354- 29.394
BEESAT 31 Aug 03:13:41 03:18:24 66° 257° (WSW) 03:23:09 436.000
TISAT 1 31 Aug 03:18:52 03:20:13 11° 271° (W) 03:21:34 437.305
ITAMSAT 1 31 Aug 03:32:08 03:36:16 24° 94° (E) 03:40:24 435.822/435.867
Oscar 19 31 Aug 03:48:43 03:53:30 38° 293° (WNW) 03:58:15 437.125/150
Gurwin Techsat 1B 31 Aug 03:49:22 03:54:43 77° 286° (WNW) 04:00:01 435.225
KKS-1 31 Aug 03:58:08 04:02:22 43° 70° (ENE) 04:06:37 437.445
ITUPSAT 1 31 Aug 04:05:01 04:08:43 22° 266° (W) 04:12:26 437.325
AO-85 31 Aug 04:13:02 04:16:36 19° 110° (ESE) 04:20:04 145.980
PHONESAT 2.4 31 Aug 04:17:34 04:20:20 34° 190° (S) 04:23:05 2401.200-2431.200
STARS 31 Aug 04:23:45 04:27:52 39° 69° (ENE) 04:32:00 437.465
CUBESAT XI-V 31 Aug 04:26:23 04:29:08 16° 61° (ENE) 04:31:52 437.345
MOZHAYETS 4 31 Aug 04:31:03 04:35:35 71° 258° (WSW) 04:40:09
AO-7 31 Aug 04:41:43 04:49:41 47° 100° (E) 04:57:33 29.400- 29.500
Cosmos 2491 31 Aug 04:49:50 04:58:03 40° 70° (ENE) 05:06:12 435.465 / 435.565
ITAMSAT 1 31 Aug 05:11:01 05:15:57 46° 291° (WNW) 05:20:52 435.822/435.867
HORYU 2 31 Aug 05:12:43 05:13:14 10° 88° (E) 05:13:45 437.375
RS-15 31 Aug 05:24:43 05:34:54 30° 345° (NNW) 05:45:22 29.354- 29.394
Gurwin Techsat 1B 31 Aug 05:31:50 05:33:46 12° 305° (NW) 05:35:42 435.225
KKS-1 31 Aug 05:35:50 05:39:07 20° 267° (W) 05:42:26 437.445
AO-85 31 Aug 05:51:24 05:56:39 69° 306° (NW) 06:01:37 145.980
PHONESAT 2.4 31 Aug 05:54:38 05:56:10 13° 206° (SSW) 05:57:42 2401.200-2431.200
Cosmos 2504 31 Aug 05:55:09 05:56:56 11° 74° (ENE) 05:58:42 435.465 / 435.565
STARS 31 Aug 06:00:58 06:04:21 21° 266° (W) 06:07:45 437.465
CUBESAT XI-V 31 Aug 06:01:25 06:05:59 64° 259° (W) 06:10:37 437.345
YUBILEINY 31 Aug 06:04:07 06:12:16 44° 87° (E) 06:20:25 435.215
GOMX 1 31 Aug 06:21:10 06:23:44 13° 86° (E) 06:26:14 467.674
NOAA 15 31 Aug 06:28:46 06:32:28 19° 91° (E) 06:36:07 137.62
Cubesat XI-IV 31 Aug 06:30:11 06:33:09 15° 89° (E) 06:36:06 437.490
AO-7 31 Aug 06:34:41 06:42:23 44° 300° (WNW) 06:50:03 29.400- 29.500
CUTE-I 31 Aug 06:40:12 06:43:53 19° 91° (E) 06:47:34 437.470
LilacSat-2 31 Aug 06:42:20 06:44:32 15° 92° (E) 06:46:44 437.200
HORYU 2 31 Aug 06:45:55 06:50:22 80° 284° (WNW) 06:54:45 437.375
Cosmos 2491 31 Aug 06:46:41 06:55:02 49° 271° (W) 07:03:24 435.465 / 435.565
BRITE-PL 31 Aug 07:02:45 07:08:29 70° 101° (E) 07:13:59 437.365/2234.400
SO-50 31 Aug 07:03:09 07:07:06 27° 42° (NE) 07:10:58 436.795
STRAND 1 31 Aug 07:17:35 07:22:27 47° 70° (ENE) 07:27:20 437.568
AO-85 31 Aug 07:34:54 07:37:56 16° 326° (NW) 07:40:53 145.980
Cosmos 2504 31 Aug 07:40:37 07:48:49 63° 93° (E) 07:56:27 435.465 / 435.565
RS-15 31 Aug 07:41:42 07:52:24 33° 20° (NNE) 08:03:08 29.354- 29.394
DOVE 4 31 Aug 07:44:15 07:48:50 35° 95° (E) 07:53:08 437.250
NOAA 18 31 Aug 07:52:13 07:57:42 69° 103° (ESE) 08:03:07 137.9125
GOMX 1 31 Aug 07:57:06 08:02:31 81° 285° (WNW) 08:07:36 467.674
CINEMA 3 31 Aug 07:58:08 07:59:55 12° 88° (E) 08:01:39 145.822/145.860
ISS 31 Aug 08:00:27 08:03:28 35° 140° (SE) 08:06:31 145.825
YUBILEINY 31 Aug 08:00:40 08:09:01 45° 288° (WNW) 08:17:26 435.215
NOAA 15 31 Aug 08:07:23 08:12:38 61° 289° (WNW) 08:17:52 137.62
Cubesat XI-IV 31 Aug 08:08:28 08:13:47 75° 287° (WNW) 08:19:05 437.490
LilacSat-2 31 Aug 08:15:30 08:19:02 40° 288° (WNW) 08:22:34 437.200
CUTE-I 31 Aug 08:19:06 08:24:21 60° 288° (WNW) 08:29:34 437.470
HO-68 31 Aug 08:21:50 08:27:38 26° 93° (E) 08:33:23 435.675
AO-7 31 Aug 08:30:38 08:33:00 11° 323° (NW) 08:35:22 29.400- 29.500
SEEDS 31 Aug 08:40:55 08:43:55 19° 92° (E) 08:46:54 437.485
BRITE-PL 31 Aug 08:42:19 08:46:19 20° 299° (WNW) 08:50:15 437.365/2234.400
SO-50 31 Aug 08:43:23 08:47:47 45° 241° (WSW) 08:52:03 436.795
PRISM 31 Aug 08:45:54 08:49:42 38° 70° (ENE) 08:53:33 437.425
BEESAT 2 31 Aug 08:49:15 08:50:32 11° 109° (ESE) 08:51:49 435.950
BEESAT 3 31 Aug 08:56:53 09:00:11 27° 115° (ESE) 09:03:32 437.485
STRAND 1 31 Aug 08:57:55 09:01:51 22° 267° (W) 09:05:49 437.568
AAUSAT CUBESAT 2 31 Aug 09:00:41 09:03:24 17° 92° (E) 09:06:06 437.432
CANX-2 31 Aug 09:09:48 09:14:02 62° 101° (E) 09:18:14 2200.000
COMPASS 1 31 Aug 09:12:06 09:15:43 28° 95° (E) 09:19:20 437.405
UWE-3 31 Aug 09:14:23 09:16:40 14° 90° (E) 09:18:53 435.000/436.395/437.385
CUTE 1.7 + AOD 2 31 Aug 09:15:06 09:19:18 62° 100° (E) 09:23:31 437.475
UNISAT 6 31 Aug 09:15:23 09:16:08 10° 59° (ENE) 09:16:54 437.425
ZACube-1 31 Aug 09:21:22 09:21:53 10° 88° (E) 09:22:24 437.345
DOVE 4 31 Aug 09:22:08 09:26:22 28° 294° (WNW) 09:30:24 437.250
CUBEBUG 2 31 Aug 09:24:16 09:27:53 27° 95° (E) 09:31:25 437.445
DANDE 31 Aug 09:29:43 09:31:54 12° 64° (ENE) 09:34:15 436.750
CINEMA 3 31 Aug 09:33:09 09:37:36 65° 286° (WNW) 09:41:49 145.822/145.860
NOAA 18 31 Aug 09:34:04 09:37:48 19° 301° (WNW) 09:41:31 137.9125
AIST 1 31 Aug 09:34:05 09:38:25 72° 97° (E) 09:42:49
CUSAT 1 31 Aug 09:34:42 09:40:46 35° 71° (ENE) 09:47:43 437.405
Cosmos 2504 31 Aug 09:35:47 09:42:40 29° 292° (WNW) 09:49:12 435.465 / 435.565
ISS 31 Aug 09:36:48 09:39:56 39° 338° (NNW) 09:43:03 145.825
GOMX 1 31 Aug 09:37:21 09:39:38 13° 304° (WNW) 09:41:54 467.674
ANTELSAT 31 Aug 09:49:05 09:52:34 22° 66° (ENE) 09:56:01 437.575/2403.000
Cubesat XI-IV 31 Aug 09:51:09 09:52:57 12° 305° (NW) 09:54:46 437.490
RS-15 31 Aug 09:55:14 10:07:39 71° 50° (NE) 10:19:50 29.354- 29.394
DELFI C3 31 Aug 10:05:48 10:07:52 14° 91° (E) 10:09:55 145.870
HO-68 31 Aug 10:08:45 10:15:51 65° 292° (WNW) 10:22:53 435.675
SEEDS 31 Aug 10:15:50 10:19:47 40° 289° (WNW) 10:23:44 437.485
Oscar 11 31 Aug 10:17:38 10:21:48 45° 99° (E) 10:25:57 145.826/435.025
TIGRISAT 31 Aug 10:17:56 10:22:10 40° 70° (ENE) 10:26:20 435.000
PRISM 31 Aug 10:22:14 10:25:09 19° 267° (W) 10:28:07 437.425
BEESAT 2 31 Aug 10:23:51 10:27:47 71° 306° (NW) 10:31:47 435.950
GONETS M04 31 Aug 10:25:58 10:29:24 13° 72° (ENE) 10:32:51
FUNcube-1 31 Aug 10:30:42 10:34:47 58° 100° (E) 10:38:52 145.935
PCSat 31 Aug 10:33:26 10:36:36 16° 104° (ESE) 10:39:46 145.827
BEESAT 3 31 Aug 10:34:15 10:37:46 31° 313° (NW) 10:41:20 437.485
AAUSAT CUBESAT 2 31 Aug 10:35:07 10:39:06 44° 288° (WNW) 10:43:04 437.432
POPSAT HIP 1 31 Aug 10:43:56 10:45:43 12° 61° (ENE) 10:47:29 437.405
CANX-2 31 Aug 10:47:13 10:49:23 14° 298° (WNW) 10:51:33 2200.000
UNISAT 6 31 Aug 10:47:34 10:52:09 85° 76° (ENE) 10:56:39 437.425
COMPASS 1 31 Aug 10:47:40 10:51:12 27° 292° (WNW) 10:54:44 437.405
UWE-3 31 Aug 10:49:24 10:53:27 50° 287° (WNW) 10:57:27 435.000/436.395/437.385
CUTE 1.7 + AOD 2 31 Aug 10:52:28 10:54:40 14° 298° (WNW) 10:56:51 437.475
ZACube-1 31 Aug 10:54:32 10:58:40 70° 286° (WNW) 11:02:47 437.345
CUBEBUG 2 31 Aug 11:00:55 11:04:27 27° 293° (WNW) 11:07:57 437.445
HUMSAT D 31 Aug 11:05:08 11:08:45 30° 96° (E) 11:12:23 437.325/437.525
DUCHIFAT 1 31 Aug 11:05:23 11:08:18 18° 64° (ENE) 11:11:12 145.980
DANDE 31 Aug 11:09:29 11:15:12 69° 79° (E) 11:22:35 436.750
QB50P2 31 Aug 11:13:22 11:16:54 26° 67° (ENE) 11:20:26 145.880/145.840
JAS-2 31 Aug 11:14:12 11:17:44 18° 57° (ENE) 11:21:27 435.910
ISS 31 Aug 11:14:23 11:17:00 21° 358° (N) 11:19:38 145.825
AIST 1 31 Aug 11:14:59 11:16:35 12° 295° (WNW) 11:18:12
POLYITAN 1 31 Aug 11:15:50 11:19:24 26° 67° (ENE) 11:22:57 437.675
CUSAT 1 31 Aug 11:16:22 11:22:55 53° 265° (W) 11:30:29 437.405
NANOSAT C BR1 31 Aug 11:20:27 11:24:03 27° 68° (ENE) 11:27:39 145.865
ANTELSAT 31 Aug 11:24:46 11:29:03 40° 262° (W) 11:33:17 437.575/2403.000
AIST 2 31 Aug 11:32:59 11:36:25 26° 114° (ESE) 11:39:53 435.215
DELFI C3 31 Aug 11:39:06 11:43:00 51° 287° (WNW) 11:46:53 145.870
BUGSAT 1 31 Aug 11:43:09 11:46:16 20° 65° (ENE) 11:49:24 437.445
Oscar 11 31 Aug 11:54:37 11:57:36 19° 296° (WNW) 12:00:36 145.826/435.025
TIGRISAT 31 Aug 11:55:29 11:58:59 22° 266° (W) 12:02:27 435.000
HO-68 31 Aug 11:58:40 12:02:14 15° 312° (NW) 12:05:46 435.675
BEESAT 2 31 Aug 12:04:47 12:06:21 12° 326° (NW) 12:07:55 435.950
QB50P1 31 Aug 12:06:12 12:10:29 88° 69° (ENE) 12:14:46 145.935-145.965
FUNcube-1 31 Aug 12:08:28 12:10:34 14° 298° (WNW) 12:12:41 145.935
RS-15 31 Aug 12:08:29 12:19:25 40° 254° (WSW) 12:30:10 29.354- 29.394
AUBIESAT-1 31 Aug 12:08:53 12:11:44 19° 97° (E) 12:14:25 437.475
PCSat 31 Aug 12:13:53 12:19:18 78° 302° (WNW) 12:24:46 145.827
GONETS M04 31 Aug 12:15:45 12:24:23 67° 93° (E) 12:33:08
POPSAT HIP 1 31 Aug 12:16:39 12:20:55 73° 257° (WSW) 12:25:13 437.405
M-CUBED/EXP-1 PRIME 31 Aug 12:17:47 12:21:21 30° 101° (E) 12:24:39 437.505
Cosmos 2499 31 Aug 12:25:56 12:33:48 62° 93° (E) 12:41:07 435.465 / 435.565
UKube-1 31 Aug 12:31:17 12:32:51 12° 89° (E) 12:34:24 .
O/OREOS (USA 219) 31 Aug 12:35:52 12:36:23 10° 96° (E) 12:36:54 437.305
DUCHIFAT 1 31 Aug 12:39:35 12:43:39 45° 261° (W) 12:47:45 145.980
HUMSAT D 31 Aug 12:40:58 12:44:15 24° 293° (WNW) 12:47:33 437.325/437.525
AO-85 31 Aug 12:42:26 12:45:54 22° 40° (NE) 12:49:10 145.980
AISAT 31 Aug 12:43:08 12:47:10 32° 97° (E) 12:51:09 437.250
QB50P2 31 Aug 12:48:48 12:52:36 30° 264° (W) 12:56:23 145.880/145.840
ISS 31 Aug 12:51:08 12:54:08 31° 18° (NNE) 12:57:08 145.825
POLYITAN 1 31 Aug 12:51:20 12:55:06 30° 264° (W) 12:58:53 437.675
ESTCUBE 1 31 Aug 12:51:55 12:56:29 73° 102° (ESE) 13:01:01 437.505/2401.250
50 SAT 31 Aug 12:52:43 12:56:09 37° 98° (E) 12:59:34 437.505
DANDE 31 Aug 12:53:20 12:57:45 22° 270° (W) 13:02:54 436.750
NANOSAT C BR1 31 Aug 12:56:01 12:59:42 28° 264° (W) 13:03:25 145.865
JAS-2 31 Aug 12:56:53 13:02:06 70° 258° (WSW) 13:07:50 435.910
AIST 2 31 Aug 13:11:00 13:14:46 34° 313° (NW) 13:18:36 435.215
BUGSAT 1 31 Aug 13:17:23 13:21:23 40° 262° (W) 13:25:24 437.445
SPROUT 31 Aug 13:18:45 13:22:46 38° 98° (E) 13:26:44 437.525
CUBEBUG 1 31 Aug 13:20:44 13:25:12 85° 284° (WNW) 13:29:36 437.445
Oscar 19 31 Aug 13:27:41 13:32:38 49° 70° (ENE) 13:37:39 437.125/150
VELOX 1 31 Aug 13:29:44 13:34:14 86° 285° (WNW) 13:38:41 145.980
DX 1 31 Aug 13:32:39 13:37:03 69° 103° (ESE) 13:41:24 434.975-435.025
Gurwin Techsat 1B 31 Aug 13:33:13 13:37:40 28° 64° (ENE) 13:42:08 435.225
AUBIESAT-1 31 Aug 13:42:43 13:46:20 34° 297° (WNW) 13:49:42 437.475
M-CUBED/EXP-1 PRIME 31 Aug 13:52:30 13:55:44 23° 300° (WNW) 13:58:47 437.505
AO-7 31 Aug 13:53:32 13:58:51 19° 46° (NE) 14:04:10 29.400- 29.500
PCSat 31 Aug 14:00:08 14:03:37 17° 323° (NW) 14:07:07 145.827
UKube-1 31 Aug 14:05:02 14:09:21 69° 287° (WNW) 14:13:39 .
O/OREOS (USA 219) 31 Aug 14:10:32 14:15:02 82° 292° (WNW) 14:19:36 437.305
GONETS M04 31 Aug 14:14:33 14:21:56 29° 295° (WNW) 14:29:25
AISAT 31 Aug 14:19:48 14:23:31 26° 294° (WNW) 14:27:13 437.250
Cosmos 2499 31 Aug 14:20:48 14:27:21 28° 292° (WNW) 14:33:35 435.465 / 435.565
AO-85 31 Aug 14:22:31 14:26:37 48° 242° (WSW) 14:30:26 145.980
50 SAT 31 Aug 14:27:08 14:29:26 16° 295° (WNW) 14:31:44 437.505
ISS 31 Aug 14:27:31 14:30:45 54° 217° (SW) 14:33:57 145.825
ESTCUBE 1 31 Aug 14:30:26 14:32:42 14° 300° (WNW) 14:34:58 437.505/2401.250
ITAMSAT 1 31 Aug 14:51:18 14:56:10 43° 68° (ENE) 15:01:02 435.822/435.867
SPROUT 31 Aug 14:55:15 14:58:28 21° 295° (WNW) 15:01:39 437.525
SWISSCUBE 31 Aug 14:56:15 14:59:53 21° 93° (E) 15:03:31 437.505
TISAT 1 31 Aug 14:57:47 15:02:01 81° 283° (WNW) 15:06:11 437.305
CUBEBUG 1 31 Aug 15:00:22 15:00:44 10° 302° (WNW) 15:01:06 437.445
Oscar 19 31 Aug 15:08:15 15:12:13 22° 267° (W) 15:16:13 437.125/150
VELOX 1 31 Aug 15:09:10 15:09:57 10° 302° (WNW) 15:10:44 145.980
DX 1 31 Aug 15:10:30 15:12:41 14° 300° (WNW) 15:14:51 434.975-435.025
Gurwin Techsat 1B 31 Aug 15:12:24 15:17:25 42° 262° (W) 15:22:28 435.225
BEESAT 31 Aug 15:12:34 15:16:39 28° 95° (E) 15:20:42 436.000
AO-7 31 Aug 15:41:56 15:50:15 72° 67° (ENE) 15:58:33 29.400- 29.500
O/OREOS (USA 219) 31 Aug 15:53:34 15:55:14 12° 314° (NW) 15:56:55 437.305
ITUPSAT 1 31 Aug 16:02:28 16:07:16 83° 102° (ESE) 16:12:03 437.325
HORYU 2 31 Aug 16:11:22 16:13:31 13° 60° (ENE) 16:15:38 437.375
YUBILEINY 31 Aug 16:12:31 16:19:13 23° 62° (ENE) 16:25:50 435.215
MOZHAYETS 4 31 Aug 16:24:58 16:28:41 24° 94° (E) 16:32:24
ITAMSAT 1 31 Aug 16:31:31 16:35:47 26° 266° (W) 16:40:04 435.822/435.867
SWISSCUBE 31 Aug 16:33:21 16:37:53 44° 290° (WNW) 16:42:24 437.505
BRITE-PL 31 Aug 16:39:32 16:41:59 13° 56° (ENE) 16:44:30 437.365/2234.400
BEESAT 31 Aug 16:50:10 16:54:27 34° 292° (WNW) 16:58:45 436.000
BEESAT 2 31 Aug 17:03:36 17:06:08 16° 38° (NE) 17:08:40 435.950
BEESAT 3 31 Aug 17:12:12 17:15:42 28° 46° (NE) 17:19:10 437.485
KKS-1 31 Aug 17:23:41 17:28:09 70° 102° (ESE) 17:32:35 437.445
LilacSat-2 31 Aug 17:27:36 17:28:19 10° 62° (ENE) 17:29:03 437.200
GOMX 1 31 Aug 17:29:51 17:33:26 19° 61° (ENE) 17:37:08 467.674
Cosmos 2504 31 Aug 17:32:14 17:37:39 22° 64° (ENE) 17:43:00 435.465 / 435.565
AO-7 31 Aug 17:36:53 17:43:39 27° 266° (W) 17:50:28 29.400- 29.500
NOAA 18 31 Aug 17:41:11 17:45:27 23° 61° (ENE) 17:49:43 137.9125
ITUPSAT 1 31 Aug 17:42:14 17:44:26 13° 301° (WNW) 17:46:38 437.325
HORYU 2 31 Aug 17:45:02 17:49:29 72° 257° (WSW) 17:53:57 437.375
STARS 31 Aug 17:47:29 17:51:51 61° 102° (ESE) 17:56:10 437.465
NOAA 15 31 Aug 17:49:55 17:54:38 35° 66° (ENE) 17:59:24 137.62
Cubesat XI-IV 31 Aug 17:53:01 17:57:34 30° 65° (ENE) 18:02:09 437.490
Cosmos 2491 31 Aug 17:53:04 18:01:04 43° 87° (E) 18:09:08 435.465 / 435.565
CUBESAT XI-V 31 Aug 17:56:38 18:00:44 29° 95° (E) 18:04:48 437.345
MOZHAYETS 4 31 Aug 18:01:43 18:05:56 37° 291° (WNW) 18:10:07
CUTE-I 31 Aug 18:03:06 18:07:55 36° 67° (ENE) 18:12:44 437.470
YUBILEINY 31 Aug 18:08:20 18:17:09 83° 264° (W) 18:25:51 435.215
BRITE-PL 31 Aug 18:14:29 18:19:30 86° 77° (ENE) 18:24:59 437.365/2234.400
BEESAT 2 31 Aug 18:40:26 18:44:27 75° 236° (WSW) 18:48:26 435.950
BEESAT 3 31 Aug 18:49:50 18:53:21 30° 244° (WSW) 18:56:51 437.485
DOVE 4 31 Aug 18:50:02 18:54:59 44° 70° (ENE) 19:00:01 437.250
HO-68 31 Aug 18:52:47 18:58:19 25° 56° (NE) 19:03:51 435.675
LilacSat-2 31 Aug 18:58:16 19:02:05 69° 259° (WSW) 19:05:54 437.200
CINEMA 3 31 Aug 19:00:13 19:03:27 17° 62° (ENE) 19:06:37 145.822/145.860
KKS-1 31 Aug 19:01:54 19:04:10 14° 300° (WNW) 19:06:23 437.445
GOMX 1 31 Aug 19:05:42 19:10:54 69° 260° (W) 19:16:22 467.674
PCSat 31 Aug 19:17:36 19:21:51 23° 42° (NE) 19:26:04 145.827
NOAA 18 31 Aug 19:20:17 19:25:43 56° 259° (WSW) 19:31:09 137.9125
Cosmos 2504 31 Aug 19:24:37 19:31:47 71° 266° (W) 19:38:54 435.465 / 435.565
STARS 31 Aug 19:25:13 19:27:43 15° 299° (WNW) 19:30:11 437.465
STRAND 1 31 Aug 19:28:02 19:30:40 14° 89° (E) 19:33:18 437.568
NOAA 15 31 Aug 19:29:43 19:34:24 32° 264° (W) 19:39:08 137.62
Cubesat XI-IV 31 Aug 19:32:31 19:37:30 39° 262° (W) 19:42:30 437.490
CUBESAT XI-V 31 Aug 19:33:55 19:38:06 32° 292° (WNW) 19:42:17 437.345
SEEDS 31 Aug 19:34:38 19:37:14 16° 64° (ENE) 19:39:52 437.485
AIST 1 31 Aug 19:40:11 19:43:33 21° 71° (ENE) 19:46:54
CUTE-I 31 Aug 19:43:16 19:47:58 32° 264° (W) 19:52:43 437.470
Cosmos 2491 31 Aug 19:49:35 19:57:51 45° 288° (WNW) 20:06:13 435.465 / 435.565
AIST 2 31 Aug 19:52:19 19:56:04 31° 46° (NE) 19:59:48 435.215
AAUSAT CUBESAT 2 31 Aug 19:53:06 19:55:18 14° 63° (ENE) 19:57:31 437.432
BRITE-PL 31 Aug 19:56:39 19:58:48 12° 275° (W) 20:01:00 437.365/2234.400
CANX-2 31 Aug 20:03:46 20:07:50 52° 73° (ENE) 20:11:56 2200.000
COMPASS 1 31 Aug 20:04:30 20:07:46 23° 67° (ENE) 20:11:03 437.405
YUBILEINY 31 Aug 20:07:24 20:12:30 17° 285° (WNW) 20:17:34 435.215
CUTE 1.7 + AOD 2 31 Aug 20:08:57 20:13:01 51° 73° (ENE) 20:17:06 437.475
UWE-3 31 Aug 20:12:44 20:15:33 17° 64° (ENE) 20:18:19 435.000/436.395/437.385
ZACube-1 31 Aug 20:18:15 20:19:54 12° 61° (ENE) 20:21:31 437.345
CUBEBUG 2 31 Aug 20:23:22 20:27:23 30° 68° (ENE) 20:31:19 437.445
DOVE 4 31 Aug 20:28:26 20:32:48 26° 267° (W) 20:37:15 437.250
CINEMA 3 31 Aug 20:35:06 20:40:05 65° 259° (W) 20:44:59 145.822/145.860
HO-68 31 Aug 20:38:10 20:45:21 75° 255° (WSW) 20:52:35 435.675
DELFI C3 31 Aug 20:54:49 20:55:34 10° 61° (ENE) 20:56:19 145.870
PCSat 31 Aug 21:00:22 21:05:48 72° 242° (WSW) 21:11:10 145.827
STRAND 1 31 Aug 21:05:17 21:10:24 75° 287° (WNW) 21:15:30 437.568
SEEDS 31 Aug 21:08:33 21:12:34 48° 261° (W) 21:16:37 437.485
Oscar 11 31 Aug 21:13:39 21:17:41 41° 71° (ENE) 21:21:44 145.826/435.025
AIST 1 31 Aug 21:17:14 21:21:17 36° 269° (W) 21:25:17
Cosmos 2504 31 Aug 21:22:01 21:23:40 11° 286° (WNW) 21:25:19 435.465 / 435.565
AAUSAT CUBESAT 2 31 Aug 21:26:18 21:30:20 56° 260° (W) 21:34:24 437.432
FUNcube-1 31 Aug 21:27:11 21:31:28 55° 73° (ENE) 21:35:40 145.935
AIST 2 31 Aug 21:30:48 21:34:31 31° 244° (WSW) 21:38:14 435.215
COMPASS 1 31 Aug 21:39:29 21:43:10 32° 264° (W) 21:46:54 437.405
CANX-2 31 Aug 21:41:41 21:44:00 14° 270° (W) 21:46:20 2200.000
CUTE 1.7 + AOD 2 31 Aug 21:46:49 21:49:10 15° 270° (W) 21:51:32 437.475
UWE-3 31 Aug 21:47:10 21:51:36 55° 260° (W) 21:55:58 435.000/436.395/437.385
ZACube-1 31 Aug 21:51:11 21:55:36 77° 257° (WSW) 21:59:56 437.345
HUMSAT D 31 Aug 21:57:55 22:01:21 26° 68° (ENE) 22:04:47 437.325/437.525
CUBEBUG 2 31 Aug 21:59:56 22:03:58 29° 264° (W) 22:07:55 437.445
PRISM 31 Aug 22:00:42 22:04:48 51° 100° (E) 22:08:52 437.425
Cosmos 2499 31 Aug 22:15:49 22:20:59 21° 64° (ENE) 22:26:10 435.465 / 435.565
GONETS M04 31 Aug 22:24:21 22:32:24 36° 69° (ENE) 22:40:22
DELFI C3 31 Aug 22:25:53 22:29:48 74° 258° (WSW) 22:33:47 145.870
HO-68 31 Aug 22:31:02 22:34:14 13° 274° (W) 22:37:26 435.675
UNISAT 6 31 Aug 22:39:11 22:41:38 15° 91° (E) 22:44:04 437.425
O/OREOS (USA 219) 31 Aug 22:40:07 22:44:08 28° 57° (ENE) 22:48:07 437.305
CUSAT 1 31 Aug 22:42:47 22:44:30 13° 82° (E) 22:46:24 437.405
CUBEBUG 1 31 Aug 22:45:11 22:46:30 11° 59° (ENE) 22:47:50 437.445
